| time (UTC) | temp F | wind direction | speed MPH | gust MPH | rain 1hr in | rain 24hr in | rain mn in | humidity % | barometer mb |
| 20260507051155 | 56 | 315 | 2.0 | 12.0 | 0.00 | 0.00 | 0.00 | 73 | 1020.8 |
| 20260507050646 | 57 | 315 | 4.0 | 14.0 | 0.00 | 0.00 | 0.00 | 73 | 1020.8 |
| 20260507050134 | 57 | 293 | 5.0 | 14.0 | 0.00 | 0.00 | 0.00 | 73 | 1021.0 |
| 20260507045623 | 57 | 315 | 2.0 | 6.0 | 0.00 | 0.00 | 0.00 | 73 | 1021.0 |
| 20260507045331 | 57 | 0 | 2.0 | 10.0 | 0.00 | 0.00 | 0.00 | 72 | 1020.8 |
| 20260507044603 | 57 | 0 | 4.0 | 10.0 | 0.00 | 0.00 | 0.00 | 72 | 1020.9 |
| 20260507044055 | 57 | 0 | 2.0 | 10.0 | 0.00 | 0.00 | 0.00 | 72 | 1020.9 |
| 20260507043544 | 58 | 315 | 3.0 | 13.0 | 0.00 | 0.00 | 0.00 | 72 | 1020.9 |
| 20260507043033 | 58 | 0 | 3.0 | 13.0 | 0.00 | 0.00 | 0.00 | 71 | 1020.8 |
| 20260507042523 | 58 | 0 | 4.0 | 11.0 | 0.00 | 0.00 | 0.00 | 71 | 1020.7 |
| 20260507042014 | 58 | 338 | 3.0 | 8.0 | 0.00 | 0.00 | 0.00 | 71 | 1020.8 |
| 20260507041504 | 58 | 338 | 4.0 | 10.0 | 0.00 | 0.00 | 0.00 | 71 | 1020.6 |
| 20260507040954 | 58 | 315 | 2.0 | 11.0 | 0.00 | 0.00 | 0.00 | 71 | 1020.7 |
| 20260507040442 | 58 | 315 | 4.0 | 11.0 | 0.00 | 0.00 | 0.00 | 71 | 1020.6 |
| 20260507035932 | 59 | 315 | 5.0 | 11.0 | 0.00 | 0.00 | 0.00 | 71 | 1020.6 |
| 20260507035423 | 59 | 0 | 4.0 | 11.0 | 0.00 | 0.00 | 0.00 | 71 | 1020.4 |
| 20260507034914 | 59 | 315 | 4.0 | 10.0 | 0.00 | 0.00 | 0.00 | 70 | 1020.4 |
| 20260507034402 | 59 | 270 | 4.0 | 11.0 | 0.00 | 0.00 | 0.00 | 70 | 1020.4 |
| 20260507033852 | 59 | 315 | 2.0 | 11.0 | 0.00 | 0.00 | 0.00 | 70 | 1020.2 |
| 20260507033612 | 59 | 0 | 6.0 | 11.0 | 0.00 | 0.00 | 0.00 | 70 | 1020.2 |
| 20260507032832 | 60 | 0 | 4.0 | 9.0 | 0.00 | 0.00 | 0.00 | 70 | 1020.1 |
| 20260507032539 | 60 | 0 | 4.0 | 9.0 | 0.00 | 0.00 | 0.00 | 70 | 1020.2 |
| 20260507031812 | 60 | 0 | 5.0 | 9.0 | 0.00 | 0.00 | 0.00 | 70 | 1019.9 |
| 20260507031301 | 60 | 315 | 3.0 | 9.0 | 0.00 | 0.00 | 0.00 | 70 | 1020.0 |
| 20260507030751 | 60 | 315 | 4.0 | 9.0 | 0.00 | 0.00 | 0.00 | 70 | 1019.8 |
| 20260507030443 | 61 | 338 | 1.0 | 8.0 | 0.00 | 0.00 | 0.00 | 68 | 1019.9 |
| 20260507030322 | 61 | 315 | 4.0 | 8.0 | 0.00 | 0.00 | 0.00 | 69 | 1019.7 |
| 20260507025444 | 61 | 0 | 3.0 | 8.0 | 0.00 | 0.00 | 0.00 | 68 | 1019.6 |
| 20260507024711 | 61 | 315 | 4.0 | 8.0 | 0.00 | 0.00 | 0.00 | 68 | 1019.6 |
| 20260507024201 | 61 | 315 | 2.0 | 8.0 | 0.00 | 0.00 | 0.00 | 68 | 1019.4 |
| 20260507023649 | 61 | 0 | 4.0 | 8.0 | 0.00 | 0.00 | 0.00 | 68 | 1019.5 |
| 20260507023142 | 61 | 315 | 2.0 | 10.0 | 0.00 | 0.00 | 0.00 | 68 | 1019.7 |
| 20260507022630 | 61 | 315 | 6.0 | 10.0 | 0.00 | 0.00 | 0.00 | 68 | 1019.5 |
| 20260507022343 | 61 | 315 | 2.0 | 8.0 | 0.00 | 0.00 | 0.00 | 67 | 1019.6 |
| 20260507021835 | 62 | 0 | 4.0 | 8.0 | 0.00 | 0.00 | 0.00 | 67 | 1019.6 |
| 20260507021059 | 62 | 0 | 1.0 | 8.0 | 0.00 | 0.00 | 0.00 | 67 | 1019.7 |
| 20260507020550 | 62 | 0 | 4.0 | 10.0 | 0.00 | 0.00 | 0.00 | 66 | 1019.6 |
| 20260507020039 | 63 | 0 | 5.0 | 10.0 | 0.00 | 0.00 | 0.00 | 64 | 1019.7 |
| 20260507015529 | 63 | 338 | 4.0 | 8.0 | 0.00 | 0.00 | 0.00 | 64 | 1019.7 |
| 20260507015018 | 64 | 315 | 3.0 | 8.0 | 0.00 | 0.00 | 0.00 | 63 | 1019.7 |
| 20260507014509 | 64 | 270 | 3.0 | 9.0 | 0.00 | 0.00 | 0.00 | 63 | 1019.7 |
| 20260507013959 | 64 | 315 | 5.0 | 11.0 | 0.00 | 0.00 | 0.00 | 63 | 1019.7 |
| 20260507013449 | 64 | 315 | 4.0 | 11.0 | 0.00 | 0.00 | 0.00 | 63 | 1019.7 |
| 20260507012938 | 64 | 270 | 4.0 | 11.0 | 0.00 | 0.00 | 0.00 | 63 | 1019.7 |
| 20260507012651 | 65 | 315 | 4.0 | 11.0 | 0.00 | 0.00 | 0.00 | 62 | 1019.6 |
| 20260507011918 | 65 | 315 | 4.0 | 9.0 | 0.00 | 0.00 | 0.00 | 63 | 1019.5 |
| 20260507011409 | 65 | 315 | 3.0 | 9.0 | 0.00 | 0.00 | 0.00 | 63 | 1019.6 |
| 20260507010857 | 65 | 315 | 3.0 | 11.0 | 0.00 | 0.00 | 0.00 | 62 | 1019.6 |
| 20260507010610 | 65 | 315 | 5.0 | 12.0 | 0.00 | 0.00 | 0.00 | 62 | 1019.7 |
| 20260507010317 | 66 | 315 | 5.0 | 12.0 | 0.00 | 0.00 | 0.00 | 61 | 1019.6 |
| 20260507005328 | 66 | 270 | 2.0 | 9.0 | 0.00 | 0.00 | 0.00 | 60 | 1019.8 |
| 20260507004818 | 67 | 315 | 2.0 | 8.0 | 0.00 | 0.00 | 0.00 | 59 | 1019.5 |
| 20260507004754 | 67 | 0 | 4.0 | 8.0 | 0.00 | 0.00 | 0.00 | 60 | 1019.6 |
| 20260507003757 | 67 | 338 | 3.0 | 10.0 | 0.00 | 0.00 | 0.00 | 61 | 1019.7 |
| 20260507003246 | 67 | 293 | 2.0 | 10.0 | 0.00 | 0.00 | 0.00 | 61 | 1019.5 |
| 20260507002737 | 67 | 0 | 4.0 | 9.0 | 0.00 | 0.00 | 0.00 | 62 | 1019.4 |
| 20260507002450 | 67 | 0 | 4.0 | 9.0 | 0.00 | 0.00 | 0.00 | 62 | 1019.4 |
| 20260507001716 | 67 | 315 | 3.0 | 8.0 | 0.00 | 0.00 | 0.00 | 62 | 1019.4 |
| 20260507001206 | 68 | 315 | 3.0 | 8.0 | 0.00 | 0.00 | 0.00 | 60 | 1019.3 |
| 20260507000657 | 69 | 315 | 2.0 | 8.0 | 0.00 | 0.00 | 0.00 | 60 | 1019.3 |
| 20260507000145 | 69 | 315 | 2.0 | 6.0 | 0.00 | 0.00 | 0.00 | 59 | 1019.3 |
| 20260506235904 | 69 | 0 | 3.0 | 5.0 | 0.00 | 0.00 | 0.00 | 59 | 1019.3 |
| 20260506235125 | 69 | 0 | 2.0 | 8.0 | 0.00 | 0.00 | 0.00 | 59 | 1019.3 |
| 20260506234615 | 69 | 0 | 1.0 | 8.0 | 0.00 | 0.00 | 0.00 | 58 | 1019.4 |
| 20260506234105 | 69 | 315 | 0.0 | 6.0 | 0.00 | 0.00 | 0.00 | 57 | 1019.3 |
| 20260506233817 | 69 | 0 | 3.0 | 6.0 | 0.00 | 0.00 | 0.00 | 56 | 1019.3 |
| 20260506233047 | 71 | 315 | 4.0 | 6.0 | 0.00 | 0.00 | 0.00 | 54 | 1019.2 |
| 20260506232535 | 71 | 315 | 1.0 | 2.0 | 0.00 | 0.00 | 0.00 | 53 | 1019.4 |
| 20260506232025 | 71 | 315 | 0.0 | 2.0 | 0.00 | 0.00 | 0.00 | 54 | 1019.4 |
| 20260506231514 | 70 | 315 | 0.0 | 3.0 | 0.00 | 0.00 | 0.00 | 55 | 1019.4 |
| 20260506231006 | 70 | 315 | 2.0 | 3.0 | 0.00 | 0.00 | 0.00 | 56 | 1019.4 |
| 20260506230455 | 69 | 315 | 0.0 | 4.0 | 0.00 | 0.00 | 0.00 | 56 | 1019.5 |
| 20260506225944 | 69 | 315 | 1.0 | 4.0 | 0.00 | 0.00 | 0.00 | 55 | 1019.7 |
| 20260506225433 | 70 | 315 | 1.0 | 3.0 | 0.00 | 0.00 | 0.00 | 54 | 1019.6 |
| 20260506224923 | 70 | 315 | 2.0 | 3.0 | 0.00 | 0.00 | 0.00 | 56 | 1019.7 |
| 20260506224643 | 69 | 315 | 2.0 | 3.0 | 0.00 | 0.00 | 0.00 | 57 | 1019.7 |
| 20260506223905 | 69 | 315 | 0.0 | 3.0 | 0.00 | 0.00 | 0.00 | 57 | 1019.9 |
| 20260506223354 | 69 | 315 | 2.0 | 4.0 | 0.00 | 0.00 | 0.00 | 58 | 1020.1 |
| 20260506222843 | 68 | 293 | 2.0 | 4.0 | 0.00 | 0.00 | 0.00 | 58 | 1019.9 |
| 20260506222332 | 68 | 293 | 2.0 | 4.0 | 0.00 | 0.00 | 0.00 | 59 | 1020.0 |
| 20260506221823 | 68 | 270 | 2.0 | 4.0 | 0.00 | 0.00 | 0.00 | 58 | 1019.9 |
| 20260506221314 | 69 | 135 | 0.0 | 4.0 | 0.00 | 0.00 | 0.00 | 58 | 1020.1 |
| 20260506220803 | 68 | 135 | 1.0 | 4.0 | 0.00 | 0.00 | 0.00 | 58 | 1020.1 |
| 20260506220252 | 68 | 135 | 1.0 | 7.0 | 0.00 | 0.00 | 0.00 | 58 | 1020.2 |
| 20260506215742 | 68 | 135 | 2.0 | 7.0 | 0.00 | 0.00 | 0.00 | 57 | 1020.1 |
| 20260506215456 | 69 | 45 | 4.0 | 5.0 | 0.00 | 0.00 | 0.00 | 56 | 1020.1 |
| 20260506214723 | 69 | 45 | 2.0 | 4.0 | 0.00 | 0.00 | 0.00 | 56 | 1020.0 |
| 20260506214211 | 69 | 0 | 1.0 | 4.0 | 0.00 | 0.00 | 0.00 | 57 | 1020.1 |
| 20260506213703 | 69 | 0 | 0.0 | 4.0 | 0.00 | 0.00 | 0.00 | 58 | 1020.0 |
| 20260506213151 | 69 | 0 | 3.0 | 4.0 | 0.00 | 0.00 | 0.00 | 58 | 1020.2 |
| 20260506212641 | 68 | 0 | 1.0 | 3.0 | 0.00 | 0.00 | 0.00 | 60 | 1020.3 |
| 20260506212132 | 68 | 0 | 2.0 | 3.0 | 0.00 | 0.00 | 0.00 | 60 | 1020.2 |
| 20260506211621 | 68 | 315 | 0.0 | 3.0 | 0.00 | 0.00 | 0.00 | 61 | 1020.2 |
| 20260506211336 | 68 | 338 | 0.0 | 4.0 | 0.00 | 0.00 | 0.00 | 60 | 1020.6 |
| 20260506210601 | 67 | 0 | 1.0 | 6.0 | 0.00 | 0.00 | 0.00 | 62 | 1020.5 |
| 20260506210051 | 67 | 0 | 3.0 | 6.0 | 0.00 | 0.00 | 0.00 | 61 | 1020.5 |
| 20260506205541 | 67 | 0 | 2.0 | 5.0 | 0.00 | 0.00 | 0.00 | 62 | 1020.4 |
| 20260506205030 | 67 | 0 | 2.0 | 3.0 | 0.00 | 0.00 | 0.00 | 63 | 1020.4 |
| 20260506204521 | 66 | 0 | 2.0 | 4.0 | 0.00 | 0.00 | 0.00 | 65 | 1020.6 |
| 20260506204010 | 65 | 315 | 2.0 | 4.0 | 0.00 | 0.00 | 0.00 | 65 | 1020.6 |
| 20260506203500 | 65 | 0 | 2.0 | 3.0 | 0.00 | 0.00 | 0.00 | 65 | 1020.6 |
| 20260506202952 | 65 | 0 | 2.0 | 4.0 | 0.00 | 0.00 | 0.00 | 65 | 1020.4 |
| 20260506202439 | 65 | 0 | 1.0 | 4.0 | 0.00 | 0.00 | 0.00 | 65 | 1020.6 |
| 20260506202155 | 65 | 0 | 2.0 | 4.0 | 0.00 | 0.00 | 0.00 | 66 | 1020.6 |
| 20260506201640 | 64 | 0 | 1.0 | 4.0 | 0.00 | 0.00 | 0.00 | 65 | 1020.3 |
| 20260506200909 | 65 | 0 | 3.0 | 4.0 | 0.00 | 0.00 | 0.00 | 65 | 1020.6 |
| 20260506200400 | 65 | 0 | 2.0 | 4.0 | 0.00 | 0.00 | 0.00 | 66 | 1020.6 |
| 20260506200330 | 64 | 0 | 0.0 | 4.0 | 0.00 | 0.00 | 0.00 | 66 | 1020.6 |
| 20260506195339 | 64 | 0 | 2.0 | 4.0 | 0.00 | 0.00 | 0.00 | 66 | 1020.6 |
| 20260506194828 | 65 | 315 | 1.0 | 3.0 | 0.00 | 0.00 | 0.00 | 66 | 1020.6 |
| 20260506194318 | 65 | 315 | 0.0 | 2.0 | 0.00 | 0.00 | 0.00 | 67 | 1021.0 |
| 20260506193810 | 65 | 315 | 1.0 | 3.0 | 0.00 | 0.00 | 0.00 | 68 | 1020.8 |
| 20260506193258 | 64 | 315 | 0.0 | 3.0 | 0.00 | 0.00 | 0.00 | 68 | 1020.9 |
| 20260506192747 | 64 | 0 | 0.0 | 3.0 | 0.00 | 0.00 | 0.00 | 69 | 1021.0 |
| 20260506192238 | 64 | 0 | 0.0 | 4.0 | 0.00 | 0.00 | 0.00 | 68 | 1020.8 |
| 20260506191727 | 64 | 315 | 2.0 | 4.0 | 0.00 | 0.00 | 0.00 | 68 | 1020.8 |
| 20260506191219 | 64 | 315 | 0.0 | 3.0 | 0.00 | 0.00 | 0.00 | 68 | 1020.7 |
| 20260506190708 | 64 | 315 | 0.0 | 3.0 | 0.00 | 0.00 | 0.00 | 68 | 1020.7 |
| 20260506190158 | 64 | 315 | 2.0 | 3.0 | 0.00 | 0.00 | 0.00 | 69 | 1020.9 |
| 20260506185648 | 64 | 315 | 0.0 | 4.0 | 0.00 | 0.00 | 0.00 | 69 | 1020.9 |
| 20260506185136 | 63 | 315 | 2.0 | 4.0 | 0.00 | 0.00 | 0.00 | 70 | 1020.8 |
| 20260506184628 | 63 | 315 | 2.0 | 3.0 | 0.00 | 0.00 | 0.00 | 71 | 1020.8 |
| 20260506184117 | 62 | 315 | 2.0 | 4.0 | 0.00 | 0.00 | 0.00 | 72 | 1020.8 |
| 20260506183606 | 62 | 0 | 2.0 | 4.0 | 0.00 | 0.00 | 0.00 | 72 | 1020.7 |
| 20260506183056 | 62 | 0 | 0.0 | 4.0 | 0.00 | 0.00 | 0.00 | 72 | 1020.6 |
| 20260506182812 | 62 | 0 | 2.0 | 4.0 | 0.00 | 0.00 | 0.00 | 72 | 1020.8 |
| 20260506182037 | 62 | 0 | 0.0 | 4.0 | 0.00 | 0.00 | 0.00 | 71 | 1020.9 |
| 20260506181526 | 62 | 0 | 2.0 | 4.0 | 0.00 | 0.00 | 0.00 | 71 | 1020.8 |
| 20260506181016 | 62 | 0 | 3.0 | 4.0 | 0.00 | 0.00 | 0.00 | 72 | 1020.8 |
| 20260506180507 | 62 | 0 | 0.0 | 1.0 | 0.00 | 0.00 | 0.00 | 73 | 1020.8 |
| 20260506175956 | 61 | 0 | 0.0 | 2.0 | 0.00 | 0.00 | 0.00 | 73 | 1020.7 |
| 20260506175447 | 61 | 0 | 0.0 | 3.0 | 0.00 | 0.00 | 0.00 | 73 | 1020.7 |
| 20260506174936 | 61 | 0 | 0.0 | 3.0 | 0.00 | 0.00 | 0.00 | 72 | 1020.9 |
| 20260506174425 | 61 | 315 | 0.0 | 2.0 | 0.00 | 0.00 | 0.00 | 73 | 1020.6 |
| 20260506173915 | 61 | 315 | 0.0 | 4.0 | 0.00 | 0.00 | 0.00 | 72 | 1020.8 |
| 20260506173405 | 61 | 315 | 0.0 | 4.0 | 0.00 | 0.00 | 0.00 | 73 | 1020.6 |
| 20260506172856 | 61 | 0 | 2.0 | 2.0 | 0.00 | 0.00 | 0.00 | 72 | 1020.6 |
| 20260506172345 | 61 | 0 | 0.0 | 2.0 | 0.00 | 0.00 | 0.00 | 73 | 1020.5 |
| 20260506171839 | 60 | 0 | 0.0 | 3.0 | 0.00 | 0.00 | 0.00 | 72 | 1020.4 |
| 20260506171324 | 61 | 0 | 2.0 | 3.0 | 0.00 | 0.00 | 0.00 | 73 | 1020.4 |
| 20260506171043 | 60 | 0 | 1.0 | 3.0 | 0.00 | 0.00 | 0.00 | 73 | 1020.5 |
| 20260506170306 | 60 | 315 | 0.0 | 3.0 | 0.00 | 0.00 | 0.00 | 73 | 1020.4 |
| 20260506165753 | 60 | 0 | 1.0 | 2.0 | 0.00 | 0.00 | 0.00 | 74 | 1020.5 |
| 20260506165243 | 60 | 0 | 1.0 | 3.0 | 0.00 | 0.00 | 0.00 | 74 | 1020.7 |
| 20260506164735 | 60 | 0 | 2.0 | 3.0 | 0.00 | 0.00 | 0.00 | 74 | 1020.6 |
| 20260506164223 | 60 | 0 | 1.0 | 4.0 | 0.00 | 0.00 | 0.00 | 74 | 1020.4 |
| 20260506163714 | 60 | 315 | 2.0 | 4.0 | 0.00 | 0.00 | 0.00 | 74 | 1020.7 |
| 20260506163204 | 60 | 315 | 2.0 | 4.0 | 0.00 | 0.00 | 0.00 | 74 | 1020.5 |
| 20260506162654 | 60 | 0 | 1.0 | 3.0 | 0.00 | 0.00 | 0.00 | 74 | 1020.6 |
| 20260506162409 | 59 | 315 | 0.0 | 3.0 | 0.00 | 0.00 | 0.00 | 74 | 1020.3 |
| 20260506161633 | 59 | 0 | 0.0 | 2.0 | 0.00 | 0.00 | 0.00 | 74 | 1020.4 |
| 20260506161124 | 59 | 0 | 0.0 | 4.0 | 0.00 | 0.00 | 0.00 | 74 | 1020.4 |
| 20260506160612 | 59 | 315 | 2.0 | 4.0 | 0.00 | 0.00 | 0.00 | 74 | 1020.5 |
| 20260506160107 | 60 | 0 | 0.0 | 3.0 | 0.00 | 0.00 | 0.00 | 75 | 1020.2 |
| 20260506155553 | 60 | 0 | 1.0 | 3.0 | 0.00 | 0.00 | 0.00 | 76 | 1020.1 |
| 20260506155306 | 59 | 0 | 0.0 | 3.0 | 0.00 | 0.00 | 0.00 | 78 | 1020.2 |
| 20260506154533 | 59 | 0 | 0.0 | 3.0 | 0.00 | 0.00 | 0.00 | 80 | 1019.8 |
| 20260506154021 | 58 | 0 | 0.0 | 3.0 | 0.00 | 0.00 | 0.00 | 81 | 1019.9 |
| 20260506153511 | 57 | 0 | 2.0 | 4.0 | 0.00 | 0.00 | 0.00 | 81 | 1020.1 |
| 20260506153001 | 57 | 0 | 1.0 | 4.0 | 0.00 | 0.00 | 0.00 | 82 | 1020.3 |
| 20260506152451 | 57 | 0 | 1.0 | 4.0 | 0.00 | 0.00 | 0.00 | 83 | 1020.4 |
| 20260506152206 | 56 | 0 | 2.0 | 4.0 | 0.00 | 0.00 | 0.00 | 83 | 1020.5 |
| 20260506151431 | 56 | 315 | 2.0 | 4.0 | 0.00 | 0.00 | 0.00 | 83 | 1020.6 |
| 20260506150921 | 56 | 315 | 0.0 | 5.0 | 0.00 | 0.00 | 0.00 | 82 | 1020.6 |
| 20260506150411 | 56 | 0 | 2.0 | 5.0 | 0.00 | 0.00 | 0.00 | 82 | 1020.7 |
| 20260506150118 | 56 | 0 | 2.0 | 5.0 | 0.00 | 0.00 | 0.00 | 82 | 1020.7 |
| 20260506145351 | 57 | 315 | 2.0 | 5.0 | 0.00 | 0.00 | 0.00 | 82 | 1020.5 |
| 20260506144840 | 57 | 0 | 1.0 | 8.0 | 0.00 | 0.00 | 0.00 | 82 | 1020.3 |
| 20260506144815 | 57 | 0 | 3.0 | 8.0 | 0.00 | 0.00 | 0.00 | 82 | 1020.3 |
| 20260506143820 | 57 | 0 | 2.0 | 5.0 | 0.00 | 0.00 | 0.00 | 82 | 1020.3 |
| 20260506143534 | 57 | 315 | 3.0 | 5.0 | 0.00 | 0.00 | 0.00 | 82 | 1020.0 |
| 20260506142802 | 57 | 0 | 3.0 | 5.0 | 0.00 | 0.00 | 0.00 | 82 | 1020.1 |
| 20260506142249 | 57 | 0 | 2.0 | 3.0 | 0.00 | 0.00 | 0.00 | 83 | 1019.8 |
| 20260506142221 | 57 | 0 | 1.0 | 4.0 | 0.00 | 0.00 | 0.00 | 84 | 1019.9 |
| 20260506141230 | 57 | 0 | 1.0 | 4.0 | 0.00 | 0.00 | 0.00 | 84 | 1019.7 |
| 20260506140719 | 57 | 338 | 2.0 | 4.0 | 0.00 | 0.00 | 0.00 | 84 | 1019.7 |
| 20260506140210 | 57 | 0 | 1.0 | 4.0 | 0.00 | 0.00 | 0.00 | 84 | 1019.7 |
| 20260506135659 | 57 | 315 | 2.0 | 4.0 | 0.00 | 0.00 | 0.00 | 84 | 1019.6 |
| 20260506135149 | 57 | 338 | 2.0 | 3.0 | 0.00 | 0.00 | 0.00 | 84 | 1019.6 |
| 20260506134638 | 57 | 315 | 1.0 | 4.0 | 0.00 | 0.00 | 0.00 | 84 | 1019.4 |
| 20260506134347 | 57 | 315 | 2.0 | 4.0 | 0.00 | 0.00 | 0.00 | 84 | 1019.6 |
| 20260506133620 | 57 | 315 | 0.0 | 2.0 | 0.00 | 0.00 | 0.00 | 84 | 1019.5 |
| 20260506133108 | 57 | 315 | 1.0 | 3.0 | 0.00 | 0.00 | 0.00 | 84 | 1019.6 |
| 20260506132558 | 57 | 315 | 2.0 | 3.0 | 0.00 | 0.00 | 0.00 | 84 | 1019.6 |
| 20260506132049 | 57 | 0 | 1.0 | 2.0 | 0.00 | 0.00 | 0.00 | 84 | 1019.5 |
| 20260506131538 | 57 | 0 | 0.0 | 2.0 | 0.00 | 0.00 | 0.00 | 84 | 1019.4 |
| 20260506131029 | 57 | 0 | 0.0 | 1.0 | 0.00 | 0.00 | 0.00 | 84 | 1019.4 |
| 20260506130517 | 57 | 0 | 0.0 | 2.0 | 0.00 | 0.00 | 0.00 | 84 | 1019.3 |
| 20260506130007 | 57 | 0 | 0.0 | 2.0 | 0.00 | 0.00 | 0.00 | 84 | 1019.1 |
| 20260506125714 | 57 | 0 | 1.0 | 2.0 | 0.00 | 0.00 | 0.00 | 84 | 1019.2 |
| 20260506124946 | 57 | 0 | 0.0 | 1.0 | 0.00 | 0.00 | 0.00 | 84 | 1019.2 |
| 20260506124438 | 57 | 0 | 0.0 | 0.0 | 0.00 | 0.00 | 0.00 | 84 | 1019.0 |
| 20260506123927 | 57 | 0 | 0.0 | 1.0 | 0.00 | 0.00 | 0.00 | 84 | 1019.1 |
| 20260506123901 | 57 | 0 | 0.0 | 4.0 | 0.00 | 0.00 | 0.00 | 84 | 1019.1 |
| 20260506122906 | 57 | 0 | 0.0 | 4.0 | 0.00 | 0.00 | 0.00 | 84 | 1019.1 |
| 20260506122356 | 57 | 0 | 0.0 | 4.0 | 0.00 | 0.00 | 0.00 | 84 | 1019.3 |
| 20260506121847 | 57 | 0 | 1.0 | 6.0 | 0.00 | 0.00 | 0.00 | 83 | 1019.1 |
| 20260506121336 | 57 | 315 | 3.0 | 6.0 | 0.00 | 0.00 | 0.00 | 83 | 1019.0 |
| 20260506120826 | 57 | 0 | 2.0 | 5.0 | 0.00 | 0.00 | 0.00 | 83 | 1019.1 |
| 20260506120316 | 57 | 0 | 2.0 | 4.0 | 0.00 | 0.00 | 0.00 | 83 | 1019.1 |
| 20260506115805 | 57 | 0 | 2.0 | 6.0 | 0.00 | 0.00 | 0.00 | 83 | 1018.7 |
| 20260506115523 | 57 | 0 | 1.0 | 6.0 | 0.00 | 0.00 | 0.00 | 83 | 1018.9 |
| 20260506114745 | 57 | 0 | 2.0 | 6.0 | 0.00 | 0.00 | 0.00 | 83 | 1018.8 |
| 20260506114235 | 57 | 315 | 2.0 | 6.0 | 0.00 | 0.00 | 0.00 | 83 | 1018.7 |
| 20260506113952 | 57 | 315 | 0.0 | 5.0 | 0.00 | 0.00 | 0.00 | 83 | 1018.8 |
| 20260506113214 | 57 | 338 | 2.0 | 5.0 | 0.00 | 0.00 | 0.00 | 82 | 1018.8 |
| 20260506112706 | 57 | 0 | 2.0 | 5.0 | 0.00 | 0.00 | 0.00 | 81 | 1018.5 |
| 20260506112154 | 57 | 0 | 2.0 | 5.0 | 0.00 | 0.00 | 0.00 | 81 | 1018.6 |
| 20260506111644 | 57 | 315 | 4.0 | 8.0 | 0.00 | 0.00 | 0.00 | 81 | 1018.5 |
| 20260506111134 | 57 | 0 | 2.0 | 8.0 | 0.00 | 0.00 | 0.00 | 81 | 1018.6 |
| 20260506110624 | 57 | 0 | 2.0 | 5.0 | 0.00 | 0.00 | 0.00 | 81 | 1018.5 |
| 20260506110115 | 57 | 315 | 2.0 | 5.0 | 0.00 | 0.00 | 0.00 | 81 | 1018.4 |
| 20260506105604 | 57 | 0 | 2.0 | 4.0 | 0.00 | 0.00 | 0.00 | 81 | 1018.2 |
| 20260506105053 | 57 | 0 | 2.0 | 4.0 | 0.00 | 0.00 | 0.00 | 80 | 1018.3 |
| 20260506104543 | 57 | 315 | 2.0 | 4.0 | 0.00 | 0.00 | 0.00 | 80 | 1018.3 |
| 20260506104032 | 57 | 0 | 2.0 | 5.0 | 0.00 | 0.00 | 0.00 | 80 | 1018.3 |
| 20260506103745 | 57 | 338 | 2.0 | 6.0 | 0.00 | 0.00 | 0.00 | 80 | 1018.1 |
| 20260506103014 | 57 | 0 | 3.0 | 6.0 | 0.00 | 0.00 | 0.00 | 80 | 1017.9 |
| 20260506102502 | 57 | 315 | 0.0 | 4.0 | 0.00 | 0.00 | 0.00 | 80 | 1017.9 |
| 20260506101953 | 57 | 0 | 3.0 | 4.0 | 0.00 | 0.00 | 0.00 | 80 | 1017.9 |
| 20260506101442 | 58 | 0 | 2.0 | 2.0 | 0.00 | 0.00 | 0.00 | 79 | 1017.8 |
| 20260506100934 | 58 | 0 | 0.0 | 2.0 | 0.00 | 0.00 | 0.00 | 79 | 1017.5 |
| 20260506100648 | 58 | 0 | 0.0 | 4.0 | 0.00 | 0.00 | 0.00 | 79 | 1017.8 |
| 20260506100133 | 58 | 0 | 1.0 | 4.0 | 0.00 | 0.00 | 0.00 | 79 | 1017.8 |
| 20260506095402 | 58 | 315 | 1.0 | 4.0 | 0.00 | 0.00 | 0.00 | 79 | 1017.7 |
| 20260506094852 | 58 | 0 | 2.0 | 3.0 | 0.00 | 0.00 | 0.00 | 79 | 1017.6 |
| 20260506094342 | 58 | 0 | 0.0 | 4.0 | 0.00 | 0.00 | 0.00 | 79 | 1017.8 |
| 20260506093833 | 58 | 315 | 2.0 | 4.0 | 0.00 | 0.00 | 0.00 | 79 | 1017.6 |
| 20260506093320 | 58 | 315 | 0.0 | 4.0 | 0.00 | 0.00 | 0.00 | 79 | 1017.8 |
| 20260506092813 | 58 | 0 | 2.0 | 4.0 | 0.00 | 0.00 | 0.00 | 78 | 1017.6 |
| 20260506092301 | 58 | 0 | 2.0 | 4.0 | 0.00 | 0.00 | 0.00 | 78 | 1017.6 |
| 20260506091751 | 58 | 0 | 2.0 | 4.0 | 0.00 | 0.00 | 0.00 | 78 | 1017.5 |
| 20260506091241 | 58 | 0 | 1.0 | 3.0 | 0.00 | 0.00 | 0.00 | 78 | 1017.6 |
| 20260506090730 | 58 | 0 | 1.0 | 4.0 | 0.00 | 0.00 | 0.00 | 78 | 1017.6 |
| 20260506090220 | 58 | 0 | 2.0 | 4.0 | 0.00 | 0.00 | 0.00 | 78 | 1017.7 |
| 20260506085928 | 59 | 315 | 0.0 | 4.0 | 0.00 | 0.00 | 0.00 | 78 | 1017.6 |
| 20260506085201 | 59 | 338 | 2.0 | 4.0 | 0.00 | 0.00 | 0.00 | 78 | 1017.6 |
| 20260506084649 | 59 | 0 | 2.0 | 4.0 | 0.00 | 0.00 | 0.00 | 78 | 1017.4 |
| 20260506084402 | 59 | 338 | 2.0 | 4.0 | 0.00 | 0.00 | 0.00 | 77 | 1017.4 |
| 20260506083630 | 59 | 338 | 2.0 | 6.0 | 0.00 | 0.00 | 0.00 | 77 | 1017.5 |
| 20260506083119 | 59 | 315 | 2.0 | 6.0 | 0.00 | 0.00 | 0.00 | 77 | 1017.5 |
| 20260506082611 | 59 | 315 | 2.0 | 3.0 | 0.00 | 0.00 | 0.00 | 77 | 1017.5 |
| 20260506082059 | 60 | 315 | 1.0 | 3.0 | 0.00 | 0.00 | 0.00 | 76 | 1017.4 |
| 20260506081549 | 60 | 315 | 2.0 | 3.0 | 0.00 | 0.00 | 0.00 | 76 | 1017.5 |
| 20260506081039 | 60 | 0 | 2.0 | 4.0 | 0.00 | 0.00 | 0.00 | 77 | 1017.4 |
| 20260506080528 | 60 | 0 | 2.0 | 4.0 | 0.00 | 0.00 | 0.00 | 76 | 1017.3 |
| 20260506073429 | 60 | 0 | 2.0 | 4.0 | 0.00 | 0.00 | 0.00 | 77 | 1017.1 |
| 20260506072918 | 60 | 315 | 2.0 | 4.0 | 0.00 | 0.00 | 0.00 | 77 | 1017.3 |
| 20260506072629 | 60 | 338 | 2.0 | 4.0 | 0.00 | 0.00 | 0.00 | 77 | 1017.0 |
| 20260506071858 | 60 | 315 | 2.0 | 3.0 | 0.00 | 0.00 | 0.00 | 78 | 1017.0 |
| 20260506071347 | 60 | 315 | 0.0 | 2.0 | 0.00 | 0.00 | 0.00 | 78 | 1017.0 |
| 20260506070839 | 60 | 315 | 2.0 | 3.0 | 0.00 | 0.00 | 0.00 | 78 | 1017.0 |
| 20260506070327 | 60 | 315 | 0.0 | 3.0 | 0.00 | 0.00 | 0.00 | 79 | 1017.1 |
| 20260506062206 | 60 | 315 | 0.0 | 0.0 | 0.00 | 0.00 | 0.00 | 81 | 1016.8 |
| 20260506062148 | 60 | 315 | 0.0 | 0.0 | 0.00 | 0.00 | 0.00 | 81 | 1016.5 |
| 20260506061145 | 60 | 315 | 0.0 | 0.0 | 0.00 | 0.00 | 0.00 | 82 | 1016.5 |
| 20260506060635 | 60 | 315 | 0.0 | 0.0 | 0.00 | 0.00 | 0.00 | 82 | 1016.6 |
| 20260506060125 | 59 | 315 | 0.0 | 0.0 | 0.00 | 0.00 | 0.00 | 82 | 1016.6 |